Miscellaneous Local Product
Issued by NWS Hastings, NE

Home | Current Version | Previous Version | Text Only | Print | Product List | Glossary Off
Versions: 1 2 3 4 5 6 7 8 9 10 11 12 13 14 15 16 17 18 19 20 21 22 23 24 25 26 27 28 29 30 31 32 33 34 35 36 37 38 39 40 41 42 43 44 45 46 47 48 49 50

000
AXUS43 KGID 011702
MISGRI

GID CWA HOURLY WEATHER ROUNDUP
NATIONAL WEATHER SERVICE HASTINGS NE
1200 PM CDT WED JUL 01 2015

NOTE: "FAIR" INDICATES FEW OR NO CLOUDS BELOW 12,000 FEET WITH NO
SIGNIFICANT WEATHER AND/OR OBSTRUCTIONS TO VISIBILITY.

...SOUTH CENTRAL NEBRASKA...

CITY           SKY/WX    TMP DP  RH WIND       PRES   REMARKS
GRAND ISLAND   CLOUDY    75  66  73 NE8       29.90R
HASTINGS       SUNNY     79  68  69 NE10      29.87S
KEARNEY        MOSUNNY   75  66  73 N12G18    29.89S
ORD            CLOUDY    72  64  76 NE7       29.91R
YORK           CLOUDY    75  68  78 E7        29.87S
AURORA         MOSUNNY   76  68  77 E8        29.87S
LEXINGTON      SUNNY     83  67  59 NE10      29.92R
HOLDREGE       SUNNY     79  65  61 N13G18    29.90R
HEBRON         MOSUNNY   81  66  60 NE9       29.83S

...NEBRASKA PANHANDLE...

CITY           SKY/WX    TMP DP  RH WIND       PRES   REMARKS
CHADRON        MOSUNNY   87  60  40 VRB6      30.00S
ALLIANCE       MOSUNNY   86  58  38 N16       30.03R
SCOTTSBLUFF    SUNNY     89  60  37 NW8       30.04F
SIDNEY         SUNNY     87  57  35 N13       30.07S

...WESTERN AND NORTH CENTRAL NEBRASKA...

CITY           SKY/WX    TMP DP  RH WIND       PRES   REMARKS
VALENTINE      MOSUNNY   81  68  64 N12       29.93R
AINSWORTH      SUNNY     80  68  68 E5        29.94R
ONEILL         CLOUDY    73  67  82 SE7       29.92F
BROKEN BOW     SUNNY     81  69  67 N8        29.92R
IMPERIAL       SUNNY     91  60  35 NE13      29.97R HX  90
NORTH PLATTE   SUNNY     91  64  40 VRB7      29.93R HX  92
MCCOOK         SUNNY     91  63  39 N10       29.91R HX  92

...EASTERN NEBRASKA...

CITY           SKY/WX    TMP DP  RH WIND       PRES   REMARKS
NORFOLK        PTSUNNY   77  67  71 E12       29.90R
SO SIOUX CITY  PTSUNNY   73  66  78 E9        29.91R
TEKAMAH        PTSUNNY   77  70  79 NE13      29.89F
COLUMBUS       MOSUNNY  N/A N/A N/A MISG        N/A
ALBION         CLOUDY    75  65  71 E8        29.90S
OMAHA EPPLEY   MOSUNNY   80  68  66 SE9       29.88R
OFFUTT AFB     MOSUNNY   79  70  74 E9        29.86R
MILLARD        MOSUNNY   78  69  73 E7        29.87R
LINCOLN        PTSUNNY   79  68  69 E9        29.86R
NEBRASKA CITY  SUNNY     79  68  68 E8        29.85F
BEATRICE       MOSUNNY   79  71  76 E10G16    29.84R
FALLS CITY     PTSUNNY   79  71  76 E15       29.84F

...NORTHERN KANSAS...

CITY           SKY/WX    TMP DP  RH WIND       PRES   REMARKS
GOODLAND       SUNNY     90  58  33 NE15G22   30.00R
HILL CITY      LGT RAIN  90  64  42 N18G25    29.88R HX  91
NORTON         SUNNY     84  61  45 N14       29.88S
PHILLIPSBURG   SUNNY     88  64  45 N14G22    29.86S
SMITH CENTER   SUNNY     84  64  51 N15       29.84S
HAYS           MOSUNNY   90  59  35 N18G24    29.83R
RUSSELL        PTSUNNY   88  58  36 N16       29.80R
CONCORDIA      PTSUNNY   89  65  44 N8        29.80R HX  91
SALINA         PTSUNNY   86  62  44 W8        29.78S
TOPEKA         MOSUNNY   83  72  69 SE10      29.82R



USA.gov is the U.S. government's official web portal to all federal, state and local government web resources and services.